Location: Cedar Ridge
(38.0658°N, 120.2769°W)
Time: 22:19:35
(UTC+00:00)

SL-16 R/B - Pass Details

Date: 10 September 2024
Orbit: 842 x 845 km, 71.0° (Epoch: 12 October)

Event Time Altitude Azimuth Distance (km) Brightness Sun altitude
Rises 12:26:50 0° 324° (NW) 3,409 5.2 -14.7°
Reaches altitude 10° 12:29:39 10° 312° (NW) 2,469 4.3 -14.2°
Maximum altitude 12:34:12 26° 258° (WSW) 1,617 3.1 -13.3°
Drops below altitude 10° 12:38:45 10° 204° (SSW) 2,456 4.2 -12.5°
Sets 12:41:34 0° 192° (SSW) 3,387 5.1 -11.9°
